Location: Devore Heights
(34.2372°N, 117.4156°W)
Time: 08:06:47
(UTC+00:00)

Altair - Pass Details

Date: 19 September 2024
Orbit: 1501 x 1682 km, 47.2° (Epoch: 07 October)

Event Time Altitude Azimuth Distance (km) Brightness Sun altitude
Rises 14:03:16 0° 302° (WNW) 4,925 9.6 4.8°
Reaches altitude 10° 14:06:34 10° 307° (NW) 3,943 9.2 5.5°
Maximum altitude 14:16:31 55° 24° (NNE) 1,958 8.4 7.5°
Drops below altitude 10° 14:26:19 10° 101° (E) 3,898 12.7 9.5°
Sets 14:29:33 0° 106° (ESE) 4,865 12.1 10.2°
